Showing default

ERS 6, 608

Orbit data source: Space-Track

ERS 6, 608 is a payload satellite owned by USAF SSD (US) in LEO that was launched on Thu, 09 May 1963 UTC via an ATLAS AGENA B launch vehicle from the Air Force Western Test Range (AFWTR). Payload-class satellites include a variety of spacecraft equipped with specific instruments for various scientific and technological missions. These include communications satellites like Starlink; space stations such as the ISS; scientific satellites like the Hubble; Earth observation satellites from companies like Planet Labs, Umbra, and HawkEye 360; GPS; miniature CubeSats for education and research; and military/defense satellites.

Loading next visibility...
Identifier
608, 1963-014C
Orbit
LEO
Country
Flag of USUS
Related business
Manufacturer
TRW
Mission
Spacecraft
Bus & Motor
TRS, Unknown motor
Mass
1 kg wet, 1 kg dry
Launch date (UTC)
1963-05-09 (63 years ago)
Launch vehicle
ATLAS AGENA B
Launch site
Air Force Western Test Range (AFWTR)
Object type
Payload
Rocket body
Debris
Shape & HBR
Unknown
Radar Cross Section
Medium (>0.1 m² and <1 m²)

Expand to show TLE details & history
Last TLE update: 2 days ago

TLE from 2 days ago
0 ERS 6
1 00608U 63014C   25349.06365709  .00000000  00000-0 -15233-2 0  9994
2 00608  87.3422 210.7510 0034055 190.4946 169.5201  8.65284293977574
Epoch: 2025-12-15T01:31Z
TLE epoch observation values (Epoch: 2025-12-15T01:31:39.972Z)
Latitude
0.00007°
Longitude
103.86686°
Altitude
3,679.808 km
Speed
6.285 km/s
True Right ascension
14h 03m 00s
True Declination
0° 00' 00"
Sunlit
Object was in daylight at epoch
Visualization orbit readout
Latitude
Unknown
Longitude
Unknown
Altitude
Unknown
Speed
Unknown
Apparent Right ascension
Unknown
Apparent Declination
Unknown
Sunlit
N/A
Visualization observer readout
Local Sidereal Time
15:08:34
Azimuth
Unknown
Elevation
Unknown
Doppler factor
Unknown
Orbital elements
Apogee altitude
3,676 km
Perigee altitude
3,607.753 km
Semi-major axis
10,020.013 km
Eccentricity
0.00341
Inclination
87.3422°
RAAN
210.751°
Arg. of periapsis
190.4946°
True anomaly
169.59079°
Mean anomaly
169.5201°
Eccentric anomaly
169.55547°
Mean motion
2.16392 °/min
Orbital period
166.36 mins
BSTAR
-0.0015233
Loading maneuver chart data...
Computing Atmospheric mass density...

Documentation

Showing up to 5 results
|